sat.trackr.live / text

‹ back to catalog

STARLINK-34308

NORAD 64258 · 2025-120C

PAYLOAD ACTIVE UNKNOWN

§ Identity

Operator
Country
US
Launch date
2025-06-04
Launch site
AFWTR
Launch vehicle
Mass (kg)
RCS (m²)

Purposes: comms

External: N2YO · Heavens-Above · Gunter

§ Orbital elements

Epoch: 2026-05-24T05:36:41.393952Z

Period
93.82 min
Inclination
53.1583°
Eccentricity
0.0003600
Mean motion
15.34783907 rev/d
Perigee alt
459.1 km
Apogee alt
464.0 km
Semi-major
6,839.7 km
B*
-1.7845e-2
RAAN
123.5753°
Arg perigee
60.7490°
Mean anomaly
299.3873°
Rev number
5,546

§ Raw data

STARLINK-343081 64258U 25120C   26144.23381243 -.00567178  00000+0 -17845-1 0  99992 64258  53.1583 123.5753 0003600  60.7490 299.3873 15.34783907 55461

JSON: /api/v1/satellites/64258 · /tle

For live sub-satellite position, see the globe view (requires WebGL).

§ Visibility from observer

Set your observer location to see the next 7 days of passes ≥ 10°. The values pass through the URL so the page stays shareable.

No JS? Fill the form by hand. The geolocation button needs JavaScript.